Location: Valley View Observatory
(41.0081°N, 76.5874°W)
Time: 20:46:34
(UTC-04:00)

Daily predictions for brighter satellites

Satellite Brightness Start Highest point End
(mag) Time Altitude Azimuth Time Altitude Azimuth Time Altitude Azimuth
SL-24 R/B - RUBIN 2 3.7 18:34:38 10° NNW 18:39:31 87° WSW 18:43:55 10° SSE
YAOGAN 1 2.7 18:35:54 10° SSE 18:40:05 51° ENE 18:44:17 10° N
EO 1 Delta rocket 4.5 18:34:00 10° SSE 18:40:49 76° E 18:46:11 10° N
Cosmos 1420 Rocket 4.2 18:36:17 10° N 18:41:29 52° ENE 18:46:37 10° SE
Cosmos 1726 3.5 18:42:07 10° SE 18:44:42 18° E 18:47:16 10° NE
DELTA 2 R/B (1) 4.2 18:39:35 10° W 18:45:02 56° SSW 18:50:29 10° ESE
CZ-4 R/B 1.4 18:40:51 10° SSE 18:45:03 85° ENE 18:49:12 10° N
Cosmos 2322 3.7 18:39:26 10° NNW 18:45:12 76° ENE 18:50:53 10° SSE
EO 1 Del DPAF 3.5 18:44:31 10° NNE 18:48:14 47° E 18:51:56 10° S
CZ-2C R/B 3.7 18:44:41 10° NNE 18:49:13 89° ESE 18:53:39 10° SSW
IRS-1A Rocket 4.4 18:43:23 10° SSE 18:49:15 83° ENE 18:55:12 10° NNW
GRACE-1 4.3 18:48:06 10° SSE 18:50:28 33° E 18:52:52 10° NNE
Cosmos 2219 Rocket 2.9 18:46:36 10° N 18:51:33 31° ENE 18:56:28 10° ESE
Landsat 4 3.8 18:48:22 10° N 18:52:06 81° WNW 18:55:49 10° SSW
METEOR-M 4.2 18:51:15 10° SSE 18:56:28 58° ENE 19:01:42 10° N
CZ-4 R/B 4.4 18:52:29 10° SSE 18:56:35 71° ENE 19:00:44 10° N
BREEZE-M DEB (TANK) 2.5 18:54:40 10° WSW 18:57:02 40° NNW 18:58:56 10° NE
Cosmos 2221 2.6 18:56:39 10° S 19:00:51 53° E 19:05:07 10° NNE
Delta 2 Rocket 4.4 18:57:24 10° WSW 19:01:06 34° S 19:04:27 10° ESE
Meteor 2-1 Rocket 4.4 18:55:47 10° S 19:01:36 89° W 19:07:33 10° N
Cosmos 2084 4.4 18:58:37 10° N 19:01:46 24° NE 19:04:15 14° E
Meteor 1-28 Rocket 3.6 18:58:26 10° N 19:02:13 68° WNW 19:05:55 10° SSW
ALOS 2.8 18:57:57 10° SE 19:02:13 37° ENE 19:06:31 10° N
Ariane Rocket 4.5 18:59:49 10° S 19:04:37 42° W 19:09:28 10° NNW
Cosmos 1315 Rocket 2.8 19:00:42 10° N 19:04:49 83° E 19:08:56 10° S
Cosmos 921 Rocket 3.2 19:01:19 10° NNW 19:05:46 79° WSW 19:10:06 10° S
SKYMED 2 3.5 19:02:47 10° NNE 19:07:07 67° ESE 19:11:25 10° S
Cosmos 1727 Rocket 4.3 19:01:38 10° N 19:07:59 74° W 19:14:16 10° S
GP-B 3.6 19:05:54 10° N 19:10:19 65° W 19:14:42 10° SSW
Cosmos 1626 4.4 19:14:36 10° NNW 19:17:52 29° W 19:21:07 10° SSW
Cosmos 2333 4.2 19:15:24 10° NNW 19:21:10 79° ENE 19:26:56 10° SSE
BREEZE-M R/B 3.3 19:20:22 10° SSW 19:22:36 26° SE 19:23:16 24° ESE
Cosmos 2123 Rocket 4.4 19:17:24 10° N 19:23:14 40° ENE 19:29:05 10° SE
Cosmos 1908 3.8 19:20:10 10° SSW 19:24:02 61° W 19:27:54 10° N
SJ-6B 4.1 19:25:54 20° ENE 19:25:54 20° ENE 19:28:15 10° NNE
Cosmos 2237 Rocket 2.9 19:23:41 10° N 19:28:50 33° ENE 19:31:45 21° ESE
Cosmos 1269 Rocket 4.0 19:24:51 10° SSW 19:30:07 90° W 19:35:26 10° NNE
Cosmos 44 3.6 19:26:01 10° SW 19:30:17 55° NW 19:34:34 10° NNE
DMSP B5D1-3 4.4 19:25:57 10° NNE 19:31:05 71° ESE 19:36:13 10° S
H-2A R/B 3.3 19:32:05 23° ESE 19:33:50 35° ENE 19:37:27 10° N
Aureole 2 Rocket 2.6 19:30:49 10° NNW 19:34:47 74° ENE 19:38:52 10° SSE
Cosmos 2227 Rocket 2.7 19:30:50 10° SSE 19:35:52 35° ESE 19:39:16 18° NE
NOSS 0 Rocket 4.0 19:33:34 10° NNW 19:39:40 57° ENE 19:44:52 14° SE
SL-16 R/B 3.6 19:37:16 10° N 19:41:18 19° NE 19:41:21 19° NE
Atlas Centaur 2 4.2 19:39:50 10° SW 19:41:37 12° SSW 19:43:30 10° S
SPOT 3 Rocket 4.0 19:37:06 10° S 19:42:15 64° WSW 19:47:27 10° NNW
Iridium 4 Rocket 3.9 19:36:52 10° S 19:42:30 82° W 19:48:26 10° N
Gbstr 26 Del rocket 3.6 19:37:42 10° NW 19:42:46 86° SW 19:47:06 20° SE
Abrixas rocket 3.5 19:40:23 10° NW 19:43:15 26° NNE 19:43:32 26° NNE
Cosmos 1300 2.5 19:44:17 10° S 19:48:05 76° E 19:51:56 10° N
Cosmos 494 Rocket 4.0 19:43:41 10° S 19:48:38 53° ESE 19:52:55 14° NNE
Sich 1 2.9 19:46:11 10° N 19:50:36 77° E 19:54:59 10° SSE
Cosmos 1980 3.7 19:47:52 10° NNW 19:53:26 55° ENE 19:55:59 31° SE
COSMO-SKYMED 1 4.2 19:51:05 10° N 19:55:03 36° WNW 19:59:01 10° SW
Resurs 01 Rocket 3.6 19:57:31 16° NNE 19:57:31 16° NNE 19:58:38 10° NNE
CZ-4C R/B 2.7 19:51:37 10° SW 19:56:44 56° NW 20:02:38 10° NNE
Cosmos 1110 Rocket 3.9 19:52:25 10° NNW 19:57:44 73° ENE 20:01:18 21° SSE
Cosmos 2098 Rocket 4.1 19:53:20 10° SSW 19:57:59 59° WNW 20:03:56 10° N
FREGAT/IRIS 4.2 20:00:58 27° N 20:00:58 27° N 20:02:29 10° N
Meteor 2-3 Rocket 4.2 19:55:05 10° N 20:00:26 38° ENE 20:00:30 38° ENE
FENGYUN 3A 4.1 19:55:32 10° S 20:00:52 64° WSW 20:06:16 10° NNW
COSMOS 2428 3.8 19:57:43 10° NW 20:03:06 44° WSW 20:08:27 10° S
USA 32 4.2 19:59:25 10° N 20:04:30 48° E 20:04:45 47° E
Cosmos 2333 Rocket 2.2 20:00:21 10° NNW 20:06:07 83° WSW 20:11:07 14° SSE
Cosmos 2219 4.1 20:01:11 10° SW 20:06:43 49° WNW 20:12:17 10° NNE
Meteor 2-10 4.1 20:05:05 10° SSW 20:10:05 73° W 20:15:15 10° N
Hubble Space Telescope 3.2 20:08:45 10° SSW 20:10:06 13° S 20:10:06 13° S
Cosmos 2297 Rocket 2.1 20:07:27 10° S 20:12:58 59° ESE 20:14:04 50° ENE
Cosmos 1666 Rocket 4.1 20:11:50 10° NNW 20:16:04 56° W 20:20:16 10° S
Cosmos 1726 4.4 20:16:43 10° SW 20:19:48 25° WNW 20:22:54 10° NNW
Cosmos 1328 Rocket 3.4 20:15:25 10° S 20:25:10 - N 20:19:44 86° S
Cosmos 1633 Rocket 3.5 20:16:23 10° NNW 20:20:45 62° W 20:24:47 12° S
Envisat 4.2 20:24:49 29° NNE 20:24:49 29° NNE 20:27:30 10° N
Cosmos 2082 3.6 20:17:44 10° SSW 20:23:25 71° ESE 20:24:19 60° ENE
Cosmos 2251 Rocket 3.4 20:18:54 10° SSW 20:24:11 82° ESE 20:25:27 54° NNE
Cosmos 2219 Rocket 3.5 20:30:23 10° NW 20:35:32 38° WSW 20:40:40 10° S
USA 267 3.6 20:48:34 49° S 20:48:34 49° S 20:53:39 10° SSW
BREEZE-M DEB (TANK) 3.7 20:53:24 10° WNW 21:04:20 66° W 21:04:20 66° W
MOS 1-B Rocket 4.4 21:06:25 54° WSW 21:06:55 56° W 21:13:00 10° NNW
Cosmos 2237 Rocket 3.5 21:07:43 10° NW 21:12:53 36° WSW 21:13:39 34° WSW
Cosmos 2227 Rocket 3.6 21:14:46 10° WSW 21:19:52 34° WNW 21:21:12 31° NNW
USA 234 4.4 21:23:45 33° N 21:23:45 33° N 21:28:06 10° NW
SL-16 R/B 3.7 21:20:19 10° NNW 21:23:15 31° NW 21:23:15 31° NW
Cosmos 2297 Rocket 4.4 21:53:07 10° WSW 21:56:00 20° WNW 21:56:00 20° WNW
